Wind_Speed
15 17 18 18 20 19 17 16 16 15 15 15 14 12 12 12 14 15 15 14 15 14 13 15 15 16 16 16 16 15 13 14
16 17 19 19 21 20 19 18 18 18 17 17 15 14 15 16 18 18 18 18 17 16 17 18 18 19 20 20 20 18 18 17
18 18 19 20 21 21 21 19 19 18 17 16 16 16 19 20 21 19 18 19 19 20 21 21 20 21 21 22 21 20 20 19
18 18 18 19 20 20 19 19 18 17 17 17 18 19 20 19 17 17 17 19 18 18 18 17 17 17 17 19 19 19 19 20
19 19 18 18 18 17 18 18 17 17 17 19 19 18 17 15 14 14 14 14 13 13 14 15 15 16 16 17 15 17 18 19
23 20 19 17 16 16 17 17 17 18 19 19 17 17 16 13 10 11 11 11 11 11 12 13 13 14 15 16 17 18 19 23
24 22 20 17 16 14 14 17 19 19 20 20 17 15 13 11 10 11 11 12 12 13 14 15 17 17 17 18 18 19 23 26
27 25 22 20 17 15 14 19 20 20 20 18 16 14 13 12 12 13 13 14 16 16 16 17 18 19 19 19 18 19 25 26
28 26 25 23 20 18 17 19 21 21 20 20 18 16 15 15 14 15 16 17 18 19 20 20 20 21 22 22 22 24 25 26
29 27 24 25 26 25 24 23 22 22 23 22 20 18 18 18 18 17 18 19 19 20 20 20 21 22 24 24 25 26 26 27
31 28 26 25 28 30 29 27 24 24 26 26 23 22 23 23 23 21 21 22 23 23 21 21 22 24 25 26 27 28 28 29
32 31 28 29 28 32 34 31 28 27 28 29 27 26 27 27 26 25 25 26 25 25 24 24 25 28 28 28 28 29 30 28
30 27 24 25 27 32 33 35 32 31 31 31 29 28 29 28 27 27 28 28 27 26 26 28 28 29 30 30 28 26 26 26
36 32 29 29 30 28 31 36 37 35 35 33 31 30 30 29 28 29 30 30 29 29 30 30 29 28 27 26 25 26 25 26
40 38 34 33 34 33 29 32 38 40 38 34 32 31 30 30 28 29 30 30 30 31 31 31 30 27 22 21 22 23 23 24
44 40 38 37 36 32 29 30 33 37 36 35 33 31 30 30 29 30 31 32 32 32 32 31 29 27 24 20 19 20 20 21
43 44 43 38 34 29 31 31 31 35 37 35 32 31 31 30 30 31 32 33 34 34 33 31 28 26 24 22 18 18 20 21
42 45 43 36 29 26 29 28 27 29 31 33 32 30 30 30 32 32 34 34 33 32 30 27 25 24 23 20 19 18 18 18
44 42 35 26 26 27 34 30 24 25 27 29 30 29 31 33 34 34 34 32 30 30 29 27 22 24 22 21 21 22 21 20
34 25 20 21 26 27 33 31 25 27 29 28 26 30 31 33 33 33 33 31 31 26 20 17 19 22 23 21 21 22 21 21
Wind_Direction
220 216 218 221 218 225 236 232 235 238 240 245 244 254 264 267 269 274 278 281 286 280 273 276 282 284 288 289 286 280 264 259
226 219 221 224 226 232 232 236 237 242 242 244 250 258 265 270 273 272 271 275 277 278 282 284 286 286 286 282 277 277 275 269
232 227 227 229 231 232 236 237 240 243 244 250 257 264 270 270 270 274 281 285 288 290 286 285 284 283 282 280 277 273 271 268
236 233 230 235 238 238 245 244 244 247 251 257 264 269 272 276 284 287 288 287 289 289 288 289 287 287 287 286 288 284 274 269
238 233 235 241 246 246 253 253 247 249 256 262 265 269 271 276 280 284 284 285 290 294 299 301 300 297 293 289 286 282 280 274
233 232 234 240 247 253 256 256 254 261 265 264 267 269 276 279 281 282 292 299 302 306 304 304 303 301 301 300 296 290 285 275
237 235 236 243 251 258 263 261 259 262 264 264 264 264 267 272 278 286 293 295 300 300 300 301 301 300 297 292 290 289 284 283
240 242 240 243 251 253 254 261 263 262 262 261 261 266 274 279 283 293 297 300 300 299 299 303 303 300 297 293 291 287 282 287
241 242 244 249 253 252 250 257 262 262 258 255 261 268 273 278 287 293 296 297 297 297 299 302 302 301 295 292 290 284 285 285
241 243 243 247 252 247 242 246 254 255 254 253 257 264 268 275 281 283 284 285 286 284 286 288 292 295 294 292 290 291 290 287
247 246 241 248 251 250 245 243 247 254 254 255 259 264 270 275 277 279 282 286 286 286 287 289 289 291 292 288 289 290 287 284
253 250 250 255 259 257 252 249 248 252 255 257 260 264 270 275 278 279 279 280 284 287 288 287 285 286 288 286 287 289 288 287
263 259 265 265 274 271 267 258 251 251 254 256 259 264 269 273 277 278 278 279 281 283 284 282 281 282 285 287 288 286 286 288
265 257 262 266 272 275 277 261 252 249 251 255 258 262 268 272 275 276 275 276 279 282 282 280 280 284 288 288 288 287 288 287
262 259 263 269 270 271 285 274 259 252 250 252 257 260 266 271 272 271 272 274 275 278 279 278 278 280 283 285 287 288 289 287
260 257 259 262 266 272 288 288 268 256 253 254 257 260 264 267 268 268 269 270 271 274 275 276 280 282 283 283 281 278 278 281
248 253 255 258 264 278 295 290 272 263 260 259 262 265 266 267 269 270 270 269 271 273 272 272 277 284 289 288 279 269 271 276
246 248 253 257 266 285 296 290 278 270 266 261 259 261 265 268 266 264 266 265 267 269 271 274 279 285 290 287 285 279 278 279
240 243 249 262 267 295 296 290 285 276 268 263 261 262 266 266 263 262 262 265 267 267 270 271 279 283 285 286 288 285 285 283
233 250 265 274 289 295 295 289 280 277 274 267 256 254 256 259 258 256 259 259 259 261 264 272 280 282 279 280 281 283 284 284
Height
3160 3161 3163 3164 3165 3166 3168 3169 3170 3170 3171 3172 3171 3172 3173 3173 3172 3172 3171 3170 3169 3168 3167 3167 3167 3167 3166 3167 3166 3166 3166 3165
3157 3159 3159 3161 3162 3163 3164 3166 3166 3167 3168 3169 3170 3170 3171 3171 3170 3169 3168 3167 3166 3165 3165 3165 3164 3164 3164 3163 3162 3161 3162 3162
3154 3155 3156 3158 3159 3159 3161 3163 3163 3165 3165 3167 3167 3168 3167 3167 3166 3166 3166 3164 3164 3164 3163 3162 3161 3160 3159 3159 3158 3158 3157 3158
3152 3153 3154 3155 3155 3156 3158 3160 3161 3162 3162 3162 3164 3164 3164 3164 3163 3163 3162 3161 3160 3159 3158 3157 3156 3156 3155 3155 3155 3154 3154 3154
3149 3149 3150 3151 3153 3154 3155 3156 3157 3158 3159 3159 3160 3160 3160 3160 3159 3158 3157 3157 3156 3155 3155 3154 3154 3153 3152 3151 3151 3150 3149 3148
3144 3146 3146 3147 3149 3150 3151 3153 3154 3155 3155 3155 3156 3156 3156 3157 3156 3154 3153 3153 3152 3152 3152 3151 3151 3150 3150 3149 3148 3147 3145 3141
3142 3143 3143 3144 3146 3148 3148 3148 3149 3150 3151 3151 3151 3151 3152 3152 3151 3151 3151 3150 3149 3149 3148 3148 3148 3147 3146 3145 3145 3144 3140 3138
3138 3140 3140 3141 3143 3145 3145 3144 3144 3145 3146 3147 3147 3148 3148 3148 3149 3148 3148 3147 3147 3147 3146 3146 3146 3144 3143 3142 3141 3139 3134 3135
3131 3134 3136 3137 3138 3141 3142 3141 3140 3141 3141 3143 3144 3145 3144 3144 3145 3145 3144 3144 3144 3143 3143 3142 3141 3140 3138 3137 3136 3133 3132 3131
3123 3125 3128 3131 3133 3136 3137 3137 3137 3137 3137 3138 3140 3141 3140 3140 3141 3141 3140 3140 3139 3138 3138 3137 3136 3134 3133 3132 3130 3128 3127 3125
3116 3118 3121 3123 3126 3129 3131 3132 3133 3133 3134 3134 3136 3136 3136 3136 3137 3137 3136 3135 3134 3133 3132 3131 3130 3128 3127 3126 3123 3121 3119 3117
3111 3112 3115 3117 3119 3121 3124 3126 3128 3129 3129 3129 3131 3132 3131 3132 3132 3131 3131 3129 3128 3127 3127 3126 3125 3123 3122 3120 3117 3115 3112 3111
3105 3109 3110 3111 3112 3114 3117 3120 3121 3122 3122 3123 3125 3126 3126 3127 3127 3126 3125 3123 3122 3121 3121 3120 3119 3116 3115 3113 3110 3107 3107 3106
3099 3101 3105 3106 3107 3108 3110 3112 3114 3114 3115 3116 3118 3119 3119 3120 3121 3120 3118 3117 3116 3115 3114 3113 3112 3111 3108 3106 3104 3103 3102 3100
3092 3096 3100 3102 3100 3101 3102 3103 3105 3107 3107 3109 3110 3113 3113 3113 3114 3112 3111 3110 3109 3108 3107 3106 3105 3103 3102 3101 3098 3096 3095 3094
3086 3091 3094 3095 3095 3096 3095 3095 3096 3099 3101 3102 3104 3105 3106 3106 3105 3105 3105 3103 3102 3101 3100 3099 3098 3096 3095 3094 3093 3094 3090 3087
3081 3084 3085 3087 3090 3090 3089 3087 3087 3089 3092 3094 3097 3098 3099 3099 3098 3099 3098 3097 3096 3094 3093 3091 3090 3089 3088 3088 3085 3087 3086 3082
3075 3077 3079 3082 3083 3084 3083 3081 3079 3081 3083 3086 3089 3090 3091 3090 3089 3089 3089 3088 3087 3086 3086 3084 3083 3083 3081 3079 3079 3079 3078 3077
3070 3072 3074 3075 3077 3075 3076 3075 3073 3074 3075 3078 3080 3083 3083 3083 3082 3081 3081 3081 3080 3079 3078 3076 3075 3075 3076 3074 3072 3072 3070 3070
3066 3068 3067 3068 3070 3070 3070 3070 3067 3068 3067 3068 3072 3073 3073 3074 3073 3073 3074 3074 3072 3071 3072 3070 3069 3069 3070 3068 3066 3065 3063 3063